TimeEDT,TemperatureF,Dew PointF,Humidity,Sea Level PressureIn,VisibilityMPH,Wind Direction,Wind SpeedMPH,Gust SpeedMPH,PrecipitationIn,Events,Conditions,WindDirDegrees,DateUTC
12:54 AM,64.9,54.0,68,29.93,10.0,North,9.2,-,N/A,,Clear,360,2013-07-25 04:54:00
1:54 AM,64.0,54.0,70,29.92,10.0,North,6.9,-,N/A,,Clear,360,2013-07-25 05:54:00
2:54 AM,63.0,53.1,70,29.93,10.0,North,4.6,-,N/A,,Clear,350,2013-07-25 06:54:00
3:54 AM,63.0,53.1,70,29.93,10.0,North,5.8,-,N/A,,Scattered Clouds,350,2013-07-25 07:54:00
4:54 AM,63.0,54.0,72,29.93,10.0,North,4.6,-,N/A,,Mostly Cloudy,360,2013-07-25 08:54:00
5:54 AM,62.1,54.0,75,29.93,10.0,North,4.6,-,N/A,,Clear,350,2013-07-25 09:54:00
6:54 AM,64.0,55.0,73,29.95,10.0,North,3.5,-,N/A,,Mostly Cloudy,360,2013-07-25 10:54:00
7:11 AM,64.4,55.4,73,29.96,10.0,NNE,4.6,-,N/A,,Overcast,20,2013-07-25 11:11:00
7:54 AM,64.9,54.0,68,29.97,10.0,NNE,5.8,-,N/A,,Mostly Cloudy,30,2013-07-25 11:54:00
8:54 AM,66.0,55.0,68,29.99,10.0,NNE,5.8,-,N/A,,Overcast,30,2013-07-25 12:54:00
9:40 AM,66.2,55.4,68,29.99,10.0,NE,8.1,-,N/A,,Mostly Cloudy,40,2013-07-25 13:40:00
9:54 AM,66.9,55.0,66,29.99,10.0,NNE,9.2,-,N/A,,Overcast,30,2013-07-25 13:54:00
10:54 AM,66.0,55.9,70,29.99,10.0,NE,9.2,-,N/A,,Overcast,40,2013-07-25 14:54:00
11:54 AM,66.9,57.0,70,30.02,10.0,NE,8.1,-,N/A,,Overcast,50,2013-07-25 15:54:00
12:54 PM,66.9,57.0,70,30.02,10.0,ENE,5.8,-,N/A,,Overcast,60,2013-07-25 16:54:00
1:54 PM,66.0,57.0,73,30.03,10.0,ENE,5.8,-,0.00,,Overcast,60,2013-07-25 17:54:00
2:54 PM,66.0,57.0,73,30.01,10.0,NNE,10.4,16.1,0.00,,Overcast,20,2013-07-25 18:54:00
3:54 PM,66.9,57.9,73,30.02,10.0,NE,8.1,-,N/A,,Overcast,40,2013-07-25 19:54:00
4:54 PM,66.9,57.0,70,30.01,10.0,ENE,6.9,-,N/A,,Overcast,60,2013-07-25 20:54:00
5:54 PM,66.0,57.9,75,30.02,10.0,Variable,5.8,-,N/A,,Overcast,0,2013-07-25 21:54:00
6:54 PM,66.0,57.9,75,30.03,10.0,NE,5.8,-,N/A,,Overcast,40,2013-07-25 22:54:00
7:54 PM,66.0,57.9,75,30.03,10.0,NNE,6.9,-,N/A,,Overcast,20,2013-07-25 23:54:00
8:44 PM,66.2,57.2,73,30.03,10.0,North,6.9,-,N/A,,Overcast,10,2013-07-26 00:44:00
8:54 PM,66.0,57.9,75,30.03,10.0,NNE,10.4,-,N/A,,Overcast,30,2013-07-26 00:54:00
9:54 PM,64.9,60.1,84,30.04,10.0,NNW,4.6,-,N/A,,Overcast,330,2013-07-26 01:54:00
10:08 PM,64.4,59.0,83,30.04,10.0,NNW,3.5,-,N/A,,Overcast,330,2013-07-26 02:08:00
10:54 PM,64.0,59.0,84,30.03,10.0,Calm,Calm,-,N/A,,Clear,0,2013-07-26 02:54:00
11:54 PM,63.0,59.0,87,30.03,10.0,Calm,Calm,-,N/A,,Scattered Clouds,0,2013-07-26 03:54:00